[[{"header":{"parameterUnit":"m.s-1","parameterCategory":1,"la1":30.2991,"la2":30.254,"lo1":-89.0895,"lo2":-89.0444,"dy":0.0017,"dx":0.0017,"nx":28,"ny":28,"refTime":"2024-06-07T03:00:00:Z","depth":0,"parameterNumber":2,"parameterNumberName":"U-component_of_WINDS"},"data":[0,0,0,0,0,0,0,0,0,0,0,0,0,0,0,0,0,0,0,0,0,0,0,0,0,0,0,0,0,0,0,0,0,0,0,0,0,0,0,0,0,0,0,0,0,0,0,0,0,0,0,0,0,0,0,0,0,0,0.4721,0.4721,0,0.4765,0.4765,0.4766,0.4754,0.4753,0.4752,0.4751,0.4797,0.4799,0.4801,0,0,0,0,0,0,0,0,0,0,0,0,0,0.4626,0.4628,0.4721,0.4721,0.4722,0.4765,0.4765,0.4766,0.4754,0.4753,0.4752,0.4751,0.4796,0.4799,0.4801,0,0,0,0,0,0,0,0,0,0,0,0,0,0.4668,0.4629,0.4721,0.4721,0.4722,0.4764,0.4765,0.4766,0.4754,0.4753,0.4752,0.475,0.4795,0.4798,0.4801,0.4846,0,0,0.4811,0.4812,0,0,0,0,0,0,0,0,0.4666,0.4672,0.472,0.4721,0.4722,0.4752,0.4749,0.4793,0.4755,0.4742,0.4751,0.475,0.4783,0.4787,0.4798,0.4849,0.4851,0.4811,0.4813,0.4814,0.4815,0,0,0,0,0,0,0,0.4663,0.467,0.4738,0.4721,0.4722,0.4719,0.4724,0.4757,0.4769,0.4743,0.4742,0.4747,0.4783,0.4795,0.4799,0.4851,0.4811,0.4814,0.4815,0.4817,0.494,0.4941,0,0,0,0,0,0,0.466,0.4668,0.4737,0.4739,0.469,0.4722,0.4727,0.4744,0.4769,0.4772,0.4749,0.4747,0.4791,0.4796,0.4801,0.4855,0.4814,0.4817,0.4819,0.4939,0.494,0.4942,0,0,0,0,0,0,0.4658,0.4666,0.4735,0.4703,0.4712,0.4725,0.4744,0.4745,0.4758,0.4773,0.4775,0.4759,0.479,0.4797,0.4835,0.4856,0.4818,0.4821,0.4937,0.4939,0.4941,0.4963,0,0,0,0,0,0,0.4655,0.4665,0.4683,0.4704,0.4714,0.4768,0.4745,0.4747,0.4763,0.4761,0.4783,0.4786,0.4789,0.483,0.4838,0.486,0.4823,0.4935,0.4938,0.494,0.4961,0.4966,0.4971,0,0,0,0,0,0.4652,0.4688,0.4684,0.4692,0.4736,0.477,0.4775,0.4779,0.4765,0.4782,0.4792,0.4785,0.4853,0.4835,0.4843,0.4866,0.4934,0.4937,0.494,0.4959,0.4965,0.4971,0,0,0,0,0,0,0.4669,0.469,0.4686,0.473,0.4748,0.4768,0.479,0.4785,0.4808,0.4805,0.4809,0.4814,0.4853,0.4863,0.4843,0.491,0.4891,0.4896,0.4902,0.4909,0.4913,0.491,0.4826,0,0,0,0,0,0.4678,0.4704,0.4721,0.4758,0.4767,0.4777,0.4792,0.4793,0.4812,0.4819,0.4832,0.4851,0.4876,0.4893,0.4917,0.4962,0.4967,0.4982,0.4987,0.4991,0.4995,0.5019,0.5026,0.4953,0.4953,0.4953,0,0,0.4696,0.4711,0.4728,0.4762,0.4776,0.4802,0.4783,0.4813,0.4832,0.4824,0.4861,0.4871,0.4892,0.4934,0.4953,0.4943,0.5016,0.4995,0.4998,0.5,0.5023,0.503,0.5036,0.4955,0.4954,0.4954,0,0,0.4744,0.4758,0.479,0.4804,0.4826,0.4832,0.4839,0.486,0.4866,0.4903,0.4897,0.492,0.4964,0.4979,0.4993,0.5045,0.5039,0.5053,0.5078,0.5102,0.5107,0.5112,0.5131,0.5137,0.5057,0.5057,0.5057,0,0.4764,0.4804,0.4807,0.4836,0.4851,0.4845,0.4877,0.4891,0.4919,0.4929,0.4919,0.4973,0.4987,0.5031,0.5044,0.5055,0.5064,0.505,0.5106,0.5111,0.5116,0.5134,0.5141,0.5059,0.5058,0.5058,0.5058,0,0.4828,0.4856,0.4879,0.4906,0.4924,0.4954,0.4961,0.4979,0.4978,0.4985,0.5023,0.5039,0.5066,0.5077,0.5077,0.5122,0.5115,0.5105,0.5086,0.5125,0.5141,0.5148,0.5061,0.506,0.506,0.5059,0,0,0.4887,0.4915,0.4924,0.4936,0.4959,0.498,0.501,0.5037,0.5051,0.5071,0.5096,0.5133,0.5124,0.5139,0.514,0.5161,0.5201,0.5149,0.5149,0.5157,0.5251,0.5258,0.5265,0.5197,0.5198,0.5199,0.5249,0,0.4936,0.4989,0.4992,0.5041,0.5066,0.506,0.5086,0.5103,0.511,0.5133,0.5141,0.5167,0.5153,0.5162,0.5182,0.5192,0.5219,0.5188,0.522,0.5221,0.5215,0.5274,0.5282,0.5328,0.5255,0.5256,0.5257,0,0.5001,0.5022,0.5072,0.5091,0.5102,0.5126,0.515,0.5171,0.519,0.5194,0.5211,0.5209,0.524,0.5219,0.5261,0.524,0.5253,0.526,0.5262,0.5265,0.5242,0.5278,0.5342,0.5349,0.5267,0.5267,0.5266,0,0.5038,0.508,0.5115,0.5126,0.5149,0.5165,0.5176,0.5193,0.5209,0.523,0.5239,0.5264,0.5277,0.5296,0.5301,0.5286,0.5343,0.5323,0.5347,0.5347,0.5359,0.5358,0.5426,0.5368,0.5368,0.5368,0.5368,0,0.5092,0.5123,0.5132,0.5154,0.5189,0.5192,0.5226,0.5235,0.525,0.5274,0.527,0.5292,0.5297,0.532,0.5324,0.5358,0.5364,0.5368,0.5369,0.5368,0.5368,0.5377,0.5374,0.537,0.5369,0.5369,0.5369,0,0.514,0.5148,0.5186,0.5204,0.521,0.5234,0.525,0.5271,0.5277,0.5307,0.5314,0.5325,0.5352,0.5358,0.539,0.5393,0.5433,0.5431,0.5426,0.5426,0.545,0.5447,0.5525,0.5535,0.5471,0.5472,0.5473,0,0.5174,0.5198,0.5219,0.5234,0.5245,0.527,0.5285,0.5289,0.5306,0.5329,0.5347,0.5373,0.5394,0.5437,0.5447,0.5472,0.547,0.5496,0.5473,0.5472,0.547,0.5468,0.547,0.55,0.55,0.5501,0.5501,0,0.5233,0.5236,0.5258,0.5282,0.5301,0.532,0.5338,0.5351,0.5357,0.5376,0.5403,0.5419,0.5451,0.5477,0.5502,0.5512,0.5508,0.5508,0.5515,0.5515,0.5511,0.5513,0.5437,0.5506,0.5506,0.5505,0.5505,0.5505,0.5275,0.5295,0.5313,0.5338,0.5353,0.5369,0.539,0.5399,0.5422,0.5448,0.5449,0.5479,0.5496,0.5529,0.554,0.5563,0.5556,0.5566,0.5568,0.557,0.5572,0.5508,0.5568,0.5568,0.5568,0.5568,0.5568,0,0.5333,0.5344,0.5368,0.5393,0.5413,0.5407,0.5427,0.5443,0.5469,0.5486,0.5507,0.5538,0.5563,0.5576,0.56,0.5616,0.5615,0.5623,0.5621,0.5624,0.5578,0.5569,0.5623,0.5623,0.5623,0.5623,0.5623,0.5623,0.5366,0.54,0.5405,0.5446,0.5457,0.5485,0.5497,0.5513,0.5526,0.5561,0.5581,0.5589,0.5605,0.563,0.5653,0.5656,0.5665,0.5674,0.5676,0.5633,0.5627,0.5622,0.5614,0.5676,0.5676,0.572,0.572,0.572]},{"header":{"parameterUnit":"m.s-1","parameterCategory":1,"la1":30.2991,"la2":30.254,"lo1":-89.0895,"lo2":-89.0444,"dy":0.0017,"dx":0.0017,"nx":28,"ny":28,"refTime":"2024-06-07T03:00:00:Z","depth":0,"parameterNumber":3,"parameterNumberName":"V-component_of_WINDS"},"data":[0,0,0,0,0,0,0,0,0,0,0,0,0,0,0,0,0,0,0,0,0,0,0,0,0,0,0,0,0,0,0,0,0,0,0,0,0,0,0,0,0,0,0,0,0,0,0,0,0,0,0,0,0,0,0,0,0,0,4.6924,4.6925,0,4.6948,4.6949,4.6949,4.6871,4.6869,4.6866,4.6864,4.6886,4.6888,4.6891,0,0,0,0,0,0,0,0,0,0,0,0,0,4.6807,4.681,4.6924,4.6925,4.6925,4.6948,4.6949,4.6949,4.6872,4.6869,4.6866,4.6863,4.6885,4.6888,4.6891,0,0,0,0,0,0,0,0,0,0,0,0,0,4.6847,4.681,4.6924,4.6889,4.6886,4.6948,4.6949,4.6949,4.6872,4.6869,4.6865,4.6862,4.6884,4.6888,4.6892,4.6988,0,0,4.6904,4.6906,0,0,0,0,0,0,0,0,4.6845,4.6852,4.6894,4.6892,4.6889,4.6903,4.6915,4.6962,4.6873,4.6877,4.6864,4.686,4.6894,4.6897,4.6909,4.6989,4.699,4.6905,4.6907,4.6909,4.691,0,0,0,0,0,0,0,4.6842,4.685,4.6934,4.6895,4.6891,4.6871,4.6873,4.6924,4.6905,4.6877,4.6871,4.6875,4.6892,4.6906,4.6909,4.699,4.6905,4.6908,4.6911,4.6912,4.7148,4.7152,0,0,0,0,0,0,4.6845,4.6848,4.6933,4.6934,4.6858,4.6876,4.6878,4.6902,4.6904,4.6901,4.6878,4.6872,4.69,4.6904,4.691,4.7022,4.6909,4.6913,4.6915,4.7145,4.7149,4.7153,0,0,0,0,0,0,4.6842,4.6853,4.6932,4.689,4.6898,4.6882,4.6909,4.6904,4.6918,4.6906,4.6901,4.6896,4.6898,4.6904,4.6969,4.7021,4.6915,4.6918,4.714,4.7146,4.7151,4.7247,0,0,0,0,0,0,4.6839,4.6853,4.689,4.6891,4.6901,4.6992,4.6913,4.6907,4.6926,4.6917,4.6921,4.6918,4.6895,4.6963,4.6973,4.7025,4.6922,4.7135,4.7143,4.7149,4.7239,4.7256,4.7269,0,0,0,0,0,4.6836,4.6916,4.6892,4.6903,4.6948,4.6995,4.7001,4.6974,4.693,4.6967,4.6959,4.6918,4.7014,4.6971,4.6981,4.7035,4.7132,4.7141,4.7149,4.7233,4.7252,4.7269,0,0,0,0,0,0,4.692,4.6915,4.6889,4.6972,4.6985,4.6982,4.7028,4.6996,4.702,4.7011,4.6975,4.6977,4.7048,4.7048,4.6999,4.7128,4.7065,4.7076,4.7125,4.7144,4.7159,4.7157,4.6925,0,0,0,0,0,4.6948,4.6989,4.6982,4.7056,4.7064,4.7045,4.7065,4.7043,4.7054,4.7059,4.7055,4.7067,4.7099,4.7122,4.7151,4.7239,4.7238,4.7281,4.7296,4.7309,4.7318,4.7364,4.7383,4.7181,4.7181,4.7181,0,0,4.7007,4.7009,4.7037,4.7073,4.708,4.7122,4.705,4.7097,4.7127,4.7065,4.7127,4.7125,4.7135,4.7212,4.7246,4.7214,4.7374,4.7319,4.7329,4.7333,4.7375,4.7394,4.7411,4.7187,4.7186,4.7185,0,0,4.7135,4.7142,4.7204,4.7213,4.7225,4.7212,4.7227,4.7229,4.7225,4.7287,4.7241,4.7276,4.7333,4.7342,4.7354,4.7486,4.7449,4.7496,4.7575,4.762,4.7636,4.765,4.7696,4.7713,4.7506,4.7506,4.7506,0,4.7206,4.7269,4.7239,4.729,4.7306,4.7253,4.7315,4.7325,4.7346,4.7358,4.7322,4.7393,4.7396,4.7474,4.7506,4.7518,4.7533,4.7496,4.7636,4.765,4.7662,4.7706,4.7724,4.7512,4.7511,4.7511,4.751,0,4.7355,4.7399,4.7447,4.747,4.7492,4.7548,4.7526,4.7551,4.7527,4.7518,4.758,4.7582,4.7611,4.7628,4.7604,4.7702,4.7682,4.7642,4.7579,4.7688,4.7728,4.7745,4.752,4.7518,4.7516,4.7515,0,0,4.7538,4.7543,4.7562,4.7571,4.758,4.7613,4.7666,4.7695,4.7717,4.7733,4.7776,4.7825,4.7788,4.7802,4.7779,4.7819,4.7922,4.7773,4.7773,4.7801,4.803,4.806,4.808,4.7898,4.7901,4.7904,4.8029,0,4.7664,4.7756,4.7731,4.7822,4.7862,4.7811,4.7857,4.7867,4.786,4.7891,4.7881,4.7917,4.7866,4.7874,4.7911,4.7902,4.7968,4.7893,4.7937,4.7939,4.7936,4.8102,4.8134,4.8252,4.8045,4.8047,4.8049,0,4.7823,4.7847,4.7943,4.7945,4.7961,4.8003,4.8027,4.8058,4.8068,4.8059,4.8075,4.8044,4.8094,4.8031,4.81,4.8049,4.8066,4.8064,4.8068,4.8071,4.8001,4.8109,4.8289,4.8307,4.8074,4.8072,4.807,0,4.7947,4.8002,4.8066,4.8076,4.808,4.8111,4.8114,4.812,4.8139,4.816,4.8172,4.8198,4.8212,4.8233,4.8209,4.8165,4.8281,4.8216,4.8275,4.8276,4.8302,4.83,4.8487,4.8313,4.8312,4.8312,4.8312,0,4.809,4.8151,4.8121,4.8161,4.8227,4.8197,4.8262,4.8259,4.8266,4.8303,4.826,4.8296,4.8263,4.8295,4.8277,4.8336,4.8343,4.8337,4.8331,4.8341,4.8342,4.8351,4.8342,4.8317,4.8316,4.8315,4.8314,0,4.8239,4.8222,4.8289,4.8288,4.8289,4.8338,4.8336,4.8372,4.8361,4.8408,4.8418,4.84,4.8436,4.8415,4.8451,4.8438,4.8516,4.8499,4.8513,4.8509,4.8569,4.8564,4.8768,4.8793,4.8603,4.8605,4.8606,0,4.8332,4.8377,4.8381,4.8404,4.841,4.8447,4.8466,4.8437,4.8459,4.8474,4.8508,4.854,4.8564,4.8624,4.8613,4.8641,4.8624,4.8694,4.8628,4.8636,4.8625,4.8623,4.8627,4.8707,4.8709,4.8711,4.8713,0,4.8498,4.8488,4.8518,4.8545,4.857,4.8589,4.8605,4.8626,4.8597,4.8623,4.866,4.8679,4.8716,4.8749,4.8772,4.8773,4.8738,4.8734,4.8749,4.8759,4.8765,4.8763,4.855,4.8729,4.8727,4.8726,4.8725,4.8725,4.8622,4.866,4.8669,4.8703,4.8713,4.8729,4.8762,4.8756,4.8786,4.8815,4.8796,4.8839,4.8847,4.8874,4.888,4.8913,4.8884,4.8906,4.8912,4.8918,4.8926,4.876,4.8917,4.8916,4.8916,4.8915,4.8915,0,4.8786,4.8789,4.8821,4.8846,4.8873,4.8838,4.8854,4.8879,4.8918,4.8928,4.8953,4.8995,4.9026,4.9019,4.9046,4.9074,4.9059,4.9082,4.908,4.9081,4.895,4.8934,4.9094,4.9094,4.9094,4.9094,4.9094,4.9094,4.8874,4.8937,4.8927,4.8993,4.8995,4.9038,4.905,4.9064,4.9073,4.9122,4.9148,4.9143,4.9146,4.9173,4.92,4.9197,4.9209,4.9239,4.923,4.9108,4.909,4.9073,4.9058,4.9241,4.9242,4.9358,4.9359,4.936]}]]